User: anonymous   Login
Location: Unspecified
(0.0000°N, 0.0000°E)
Time: 14:19:47
(UTC+00:00)
Language:

WGS F3 (USA 211) - Orbit

View from above orbital plane
View from above orbital plane
View from above satellite
View from above satellite

Ground track
Ground track

The orbit data is extracted from the following two-line orbital elements,

1 36108U 09068A   16338.57424707 0.00000000  00000-0  00000-0 0    01
2 36108   0.0197 267.5321 0002003  16.9937 343.0063  1.00270000    02
Epoch (UTC): 03 December 2016 13:46:54
Eccentricity: 0.0002003
inclination: 0.0197°
perigee height: 35778 km
apogee height: 35795 km
right ascension of ascending node: 267.5321°
argument of perigee: 16.9937°
revolutions per day: 1.00270000
mean anomaly at epoch: 343.0063°
orbit number at epoch: 0

The dashed part of the orbit path shows where the satellite is in the earth's shadow,  

DLR